Regional Weather Roundup
Issued by NWS State College, PA

Home | Current Version | Previous Version | Graphics & Text | Print | Product List | Glossary On
Versions: 1 2 3 4 5 6 7 8 9 10 11 12 13 14 15 16 17 18 19 20 21 22 23 24 25 26 27 28 29 30 31 32 33 34 35 36 37 38 39 40 41 42 43 44 45 46 47 48 49 50
000
ASUS41 KCTP 011310
RWRCTP

REGIONAL WEATHER ROUNDUP
NATIONAL WEATHER SERVICE STATE COLLEGE PA
900 AM EDT SAT AUG 01 2015

Note: "fair" indicates few or no clouds below 12,000 feet with no
significant weather and/or obstructions to visibility.

* = STATION THAT DOES NOT REPORT PRECIPITATION /E.G. RAIN...SNOW...ETC/
    THUNDER OR FOG.

PAZ002>004-007>009-013>016-020>023-029>032-011400-
WESTERN PENNSYLVANIA

CITY           SKY/WX    TMP DP  RH WIND       PRES   REMARKS
ERIE           MOSUNNY   74  59  59 VRB6      29.91R
MEADVILLE      SUNNY     69  60  73 W6        29.94R
FRANKLIN*      SUNNY     70  59  68 W8        29.95R
NEW CASTLE     FAIR      73  63  71 CALM      29.95R
BEAVER COUNTY  SUNNY     70  59  68 W5        29.94
BUTLER*        SUNNY     70  61  73 NW5       29.96R
PITTSBURGH INT MOSUNNY   71  59  65 NW8       29.94R
PITTSBURGH     SUNNY     71  55  56 NW3       29.94R
INDIANA*       SUNNY     70  61  73 VRB5      29.96S
LATROBE        SUNNY     72  63  73 SW7       29.95R
WASHINGTON CO* NOT AVBL
$$

PAZ004>006-010>012-017>019-024>028-033>037-041-042-045-046-049>053-011400-
CENTRAL PENNSYLVANIA

CITY           SKY/WX    TMP DP  RH WIND       PRES   REMARKS
BRADFORD       SUNNY     66  57  72 NW15      29.93R
DUBOIS         SUNNY     69  60  73 NW7       29.93R
CLEARFIELD     SUNNY     71  60  68 VRB5      29.92R
JOHNSTOWN      PTSUNNY   68  57  68 W10       29.96R
ALTOONA        MOSUNNY   74  59  59 W6        29.94R
STATE COLLEGE  SUNNY     72  61  68 W12       29.91R
WILLIAMSPORT   SUNNY     74  61  63 W12       29.85R
SELINSGROVE    PTSUNNY   76  63  64 VRB5      29.86R
FT INDIANTOWN  SUNNY     73  64  74 SW6       29.86R
CAPITAL CITY   SUNNY     77  62  59 W7        29.87R
HARRISBURG     MOSUNNY   78  63  59 CALM      29.86R
YORK           PTSUNNY   75  63  66 W7        29.88R
$$

PAZ038>040-043-044-047-048-054-055-060>062-067>071-011400-
EASTERN PENNSYLVANIA

CITY           SKY/WX    TMP DP  RH WIND       PRES   REMARKS
SCRANTON       SUNNY     75  61  61 SW10      29.84S
MOUNT POCONO   SUNNY     70  61  73 VRB6      29.88S
ALLENTOWN      PTSUNNY   74  65  73 W6        29.84S
QUAKERTOWN*    PTSUNNY   73  64  73 SW5       29.86S
READING        PTSUNNY   75  63  66 S3        29.85R
LANCASTER      MOSUNNY   72  65  78 CALM      29.87R
COATESVILLE    MOSUNNY   73  64  73 W7        29.89R
POTTSTOWN      CLOUDY    73  64  73 W6        29.87R
BLUE BELL      SUNNY     77  64  65 W3        29.85R
DOYLESTOWN     MOSUNNY   75  61  61 SW7       29.85R
WILLOW GROVE   NOT AVBL
NORTH PHILA    LGT RAIN  82  60  47 W13       29.86R
PHILADELPHIA   MOSUNNY   80  61  52 W13       29.86R
$$


USA.gov is the U.S. government's official web portal to all federal, state and local government web resources and services.